Find Starlink 34299

NORAD ID: 64383 Int'l Des: 2025-127 Owner: SPXS Country: US Constellation: starlink operational
LEOCIRCULAR

現在のビュー

3D地球を読み込み中...

About Starlink 34299

Starlink 34299 (NORAD 64383) is a starlink constellation satellite (v2 mini) launched Jun 13, 2025 by SPXS of US. It operates in LEO, CIRCULAR orbit with a mass of 575.00 kg.

次回通過

Passes for default location (London). Set your location on the main map for personalized predictions.

高度履歴

Loading altitude history...

軌道要素

1 64383U 25127P 26263.02472242 .00008504 00000-0 31819-3 0 9995
2 64383 43.0017 162.6664 0001014 264.8759 95.1977 15.27579968 72139
Epoch: Sep 20, 2026 • Age: 27 hours

現在のステータス

高度 483.4 km
遠地点 / 近地点 N/A
速度 7.63 km/s
衛星直下点 -4.42°S, 80.38°W
打ち上げ日 Jun 13, 2025
運用期間 1.2 years
タイプ internet

技術仕様

分類 Payload
質量 575.00 kg
乾燥質量 530.00 kg
長さ 0.30 m
スパン 29.00 m
形状 ? Box + pan
製造者 SPXS
バスタイプ Starlink V2MO
フェーズステータス In Orbit
所有者/国 SPXS/US

Most Searched